Change the Weather History Date:

Tuesday, March 11, 2014

  Actual Average Record
Temperature  
Mean Temperature 52 °F -  
Max Temperature 73 °F 73 °F 82 °F (2003)
Min Temperature 32 °F 39 °F 32 °F (1998)
Degree Days  
Heating Degree Days 12    
Growing Degree Days 2 (Base 50)    
Moisture  
Dew Point 21 °F    
Average Humidity 34    
Maximum Humidity 69    
Minimum Humidity 12    
Precipitation  
Precipitation 0.00 in - - ()
Sea Level Pressure  
Sea Level Pressure 30.15 in    
Wind  
Wind Speed 8 mph ()    
Max Wind Speed 17 mph    
Max Gust Speed 17 mph    
Visibility 10.0 miles    
Events      
Averages and records for this station are not official NWS values.
T = Trace of Precipitation, MM = Missing Value Source: Averaged Metar Reports

Daily Weather History Graph

Daily Weather History Graph

Search for Another Location

Airport or City:

Trip Planner

Search our weather history database for the weather conditions in past years. The results will help you decide how hot, cold, wet, or windy it might be!

Date:

Astronomy

Mar. 11, 2014 Rise Set
Actual Time 7:03 AM CST 6:58 PM CST
Civil Twilight 6:40 AM CST 7:20 PM CST
Nautical Twilight 6:14 AM CST 7:46 PM CST
Astronomical Twilight 5:48 AM CST 8:13 PM CST
Moon 2:59 PM CST (3/11) 3:33 AM CST (3/11)
Length of Visible Light 12h 40m
Length of Day
11h 55m
Waxing Gibbous, 78% of the Moon is Illuminated
Mar 11
Waxing Gibbous
Mar 16
Full
Mar 23
Last Quarter
Mar 30
New
Apr 7
First Quarter

Hourly Weather History & Observations

Time (CST) Temp. Windchill Dew Point Humidity Pressure Visibility Wind Dir Wind Speed Gust Speed Precip Events Conditions
12:45 AM 41.0 °F 36.4 °F 23.0 °F 49% 30.20 in 10.0 mi SSW 6.9 mph - N/A   Clear
1:43 AM 41.0 °F 34.7 °F 23.0 °F 49% 30.19 in 10.0 mi SSW 10.4 mph - N/A   Clear
2:43 AM 37.4 °F 32.1 °F 23.0 °F 56% 30.18 in 10.0 mi SSW 6.9 mph - N/A   Clear
3:43 AM 35.6 °F 29.9 °F 23.0 °F 60% 30.16 in 10.0 mi SSW 6.9 mph - N/A   Clear
4:43 AM 32.0 °F 25.6 °F 21.2 °F 64% 30.16 in 10.0 mi SSW 6.9 mph - N/A   Clear
5:40 AM 35.6 °F 29.2 °F 24.8 °F 65% 30.16 in 10.0 mi South 8.1 mph - N/A   Clear
7:42 AM 32.0 °F 26.4 °F 23.0 °F 69% 30.19 in 10.0 mi South 5.8 mph - N/A   Clear
8:42 AM 48.2 °F - 30.2 °F 50% 30.20 in 10.0 mi SSW 11.5 mph - N/A   Clear
9:42 AM 55.4 °F - 28.4 °F 36% 30.20 in 10.0 mi SSW 17.3 mph - N/A   Clear
10:42 AM 55.4 °F - 28.4 °F 36% 30.20 in 10.0 mi SSW 17.3 mph - N/A   Clear
11:44 AM 64.4 °F - 21.2 °F 19% 30.17 in 10.0 mi SW 5.8 mph 17.3 mph N/A   Clear
12:46 PM 69.8 °F - 17.6 °F 14% 30.14 in 10.0 mi WSW 11.5 mph - N/A   Clear
1:44 PM 71.6 °F - 19.4 °F 14% 30.11 in 10.0 mi SW 17.3 mph - N/A   Clear
2:52 PM 73.4 °F - 17.6 °F 12% 30.07 in 10.0 mi West 5.8 mph - N/A   Clear
3:51 PM 73.4 °F - 19.4 °F 13% 30.06 in 10.0 mi WSW 8.1 mph - N/A   Clear
5:14 PM 73.4 °F - 17.6 °F 12% 30.06 in 10.0 mi SW 5.8 mph - N/A   Clear
5:42 PM 73.4 °F - 17.6 °F 12% 30.07 in 10.0 mi SW 13.8 mph - N/A   Clear
6:50 PM 64.4 °F - 17.6 °F 16% 30.10 in 10.0 mi SW 11.5 mph - N/A   Clear
7:47 PM 59.0 °F - 19.4 °F 22% 30.12 in 10.0 mi SSW 9.2 mph - N/A   Clear
8:41 PM 53.6 °F - 17.6 °F 24% 30.14 in 10.0 mi South 10.4 mph - N/A   Clear
9:40 PM 53.6 °F - 15.8 °F 22% 30.15 in 10.0 mi South 9.2 mph - N/A   Clear
10:41 PM 42.8 °F 40.1 °F 12.2 °F 29% 30.16 in 10.0 mi SW 4.6 mph - N/A   Clear
11:40 PM 42.8 °F 38.0 °F 15.8 °F 34% 30.16 in 10.0 mi South 8.1 mph - N/A   Clear